DRAGON CRS-28

Last updated on Sat Jun 24 2023 00:02:04 GMT+0000 (Coordinated Universal Time)

1 56845U 23080A 23172.50173489 .00015733 00000+0 28063-3 0 9993 2 56845 51.6410 307.1433 0004553 65.1884 294.9578 15.50243745 2458
UTC large
Height (km)
Speed (km/s)
/
Latitude / Longitude
Inclination (degrees)
Orbital Period (minutes)
Azimuth
Elevation
Range (km)
Doppler Factor

Next 0 passes for location: London (51.5072 / 0.1276)

Sorry there are no passes over London.